Regional Weather Roundup
Issued by NWS Sioux Falls, SD

Home | Current Version | Previous Version | Text Only | Print | Product List | Glossary On
Versions: 1 2 3 4 5 6 7 8 9 10 11 12 13 14 15 16 17 18 19 20 21 22 23 24 25 26 27 28 29 30 31 32 33 34 35 36 37 38 39 40 41 42 43 44 45 46 47 48 49 50
000
ASUS43 KFSD 192110
RWRFSD

WEATHER ROUNDUP FOR SE SOUTH DAKOTA/SW MINNESOTA/NW IOWA
NATIONAL WEATHER SERVICE SIOUX FALLS SD
400 PM CDT SUN MAY 19 2019

NOTE: "FAIR" INDICATES FEW OR NO CLOUDS BELOW 12,000 FEET WITH NO
SIGNIFICANT WEATHER AND OR OBSTRUCTIONS TO VISIBILITY.


SDZ038>040-050-052>070-192200-
SOUTHEAST SOUTH DAKOTA

CITY           SKY/WX    TMP DP  RH WIND       PRES   REMARKS
BROOKINGS      CLOUDY    43  40  89 NE12G18   29.91R
CHAMBERLAIN    CLOUDY    47  46  93 N13       29.97F
HURON          CLOUDY    45  39  79 NE16      29.96R
MADISON        CLOUDY    43  43 100 NE18      29.91R
MITCHELL       CLOUDY    48  41  76 N16       29.94R
SIOUX FALLS    CLOUDY    47  41  80 N14       29.88R
WINNER         LGT RAIN  44  38  79 N13G25    29.99R
YANKTON        LGT RAIN  46  45  93 NW10      29.91R
$$

MNZ071-072-080-081-089-090-097-098-192200-
SOUTHWEST MINNESOTA

CITY           SKY/WX    TMP DP  RH WIND       PRES   REMARKS
FAIRMONT       CLOUDY    45  42  89 N14       29.82R
JACKSON        CLOUDY    43  41  93 N12       29.83R FOG
LUVERNE        CLOUDY    43  41  93 N10G17    29.88R
MARSHALL       LGT RAIN  41  39  93 NE17      29.91R FOG
MONTEVIDEO     DRIZZLE   43  37  81 E15G24    29.92R
PIPESTONE      CLOUDY    43  41  93 NE15G22   29.88R
REDWOOD FALLS  CLOUDY    42  37  82 N15G26    29.88R
WINDOM         CLOUDY    43  39  87 N15       29.83R FOG
WORTHINGTON    LGT RAIN  44  42  93 N18       29.86R FOG
$$

IAZ001>003-012>014-020>022-031-032-NEZ013-014-SDZ071-192200-
NORTHWEST IOWA

CITY           SKY/WX    TMP DP  RH WIND       PRES   REMARKS
CHEROKEE       CLOUDY    50  47  89 NW12      29.84R
DENISON        CLOUDY    52  45  76 NW15G22   29.86R
ESTHERVILLE    CLOUDY    45  42  89 N14       29.81R
LE MARS        CLOUDY    50  46  87 N15       29.85R
MAURICE        MOCLDY    46  45  93 N15G21    29.84S FOG
SHELDON        CLOUDY    46  46 100 N17       29.83R
SIOUX CITY     CLOUDY    51  43  74 NW16G24   29.87R
SPENCER        LGT RAIN  48  43  82 NW12      29.83R
STORM LAKE       N/A     48  48 100 NW17G24   29.80R
$$

ABBREVIATIONS USED IN REMARKS
   TC - TEMPERATURE IN CELSIUS
  WCI - WIND CHILL INDEX
   HX - HEAT INDEX
  VSB - VISIBILITY




USA.gov is the U.S. government's official web portal to all federal, state and local government web resources and services.